Terminal Aerodrome Forecast
Issued by NWS Greer, SC

Home | Current Version | Previous Version | Text Only | Print | Product List | Glossary On
Versions: 1 2 3 4 5 6 7 8 9 10 11 12 13 14 15 16 17 18 19 20 21
000
FTUS42 KGSP 200500
TAFGSP
TAF
KGSP 200520Z 2006/2106 03005KT P6SM BKN045
     FM201000 03006KT P6SM BKN026
     FM201100 03007KT P6SM BKN018
     FM201400 03010G17KT P6SM SCT250
     FM210000 02004KT P6SM FEW250=

USA.gov is the U.S. government's official web portal to all federal, state and local government web resources and services.